Weather History for Elizabethton, TN

Change the Weather History Date:

Wednesday, October 16, 2013

  Actual Average (KTRI) Record (KTRI)
Temperature  
Mean Temperature 60 °F 56 °F  
Max Temperature 69 °F 69 °F 83 °F (1984)
Min Temperature 50 °F 43 °F 28 °F (1939)
Degree Days  
Heating Degree Days 6 9  
Month to date heating degree days 112  
Since 1 July heating degree days 165  
Cooling Degree Days 0 0  
Month to date cooling degree days 9  
Year to date cooling degree days 977  
Growing Degree Days 10 (Base 50)    
Moisture  
Dew Point 53 °F    
Average Humidity 80    
Maximum Humidity 100    
Minimum Humidity 60    
Precipitation  
Precipitation 0.00 in 0.07 in 3.65 in (1964)
Month to date precipitation 1.06  
Year to date precipitation 33.50  
Snow  
Snow 0.00 in 0.00 in - ()
Month to date snowfall 0.0  
Since 1 July snowfall 0.0  
Since 1 September snowfall 0.0  
Snow Depth -    
Sea Level Pressure  
Sea Level Pressure 30.04 in    
Wind  
Wind Speed 2 mph (North)    
Max Wind Speed 7 mph    
Max Gust Speed -    
Visibility 10 miles    
Events      
T = Trace of Precipitation, MM = Missing Value Source: NWS Daily Summary

Daily Weather History Graph

Daily Weather History Graph

Search for Another Location

Airport:

Trip Planner

Search our weather history database for the weather conditions in past years. The results will help you decide how hot, cold, wet, or windy it might be!

Date:

Astronomy

Oct. 16, 2013 Rise Set
Actual Time 7:36 AM EDT 6:50 PM EDT
Civil Twilight 7:10 AM EDT 7:16 PM EDT
Nautical Twilight 6:40 AM EDT 7:46 PM EDT
Astronomical Twilight 6:11 AM EDT 8:16 PM EDT
Moon 5:27 PM EDT (10/16) 5:07 AM EDT (10/16)
Length of Visible Light 12h 05m
Length of Day
11h 13m
Waxing Gibbous, 94% of the Moon is Illuminated
Oct 16
Waxing Gibbous
Oct 18
Full
Oct 26
Last Quarter
Nov 3
New
Nov 10
First Quarter

Hourly Weather History & Observations

Time (EDT) Temp. Dew Point Humidity Pressure Visibility Wind Dir Wind Speed Gust Speed Precip Events Conditions
12:15 AM 55.4 °F 53.6 °F 94% 30.07 in 8.0 mi ENE 4.6 mph - N/A   Clear
12:35 AM 55.4 °F 53.6 °F 94% 30.07 in 7.0 mi Calm Calm - N/A   Clear
12:55 AM 55.4 °F 53.6 °F 94% 30.07 in 10.0 mi Calm Calm - N/A   Clear
1:15 AM 57.2 °F 51.8 °F 82% 30.06 in 8.0 mi Calm Calm - N/A   Clear
1:35 AM 57.2 °F 51.8 °F 82% 30.06 in 9.0 mi Calm Calm - N/A   Clear
1:55 AM 57.2 °F 51.8 °F 82% 30.06 in 10.0 mi Calm Calm - N/A   Clear
2:15 AM 57.2 °F 51.8 °F 82% 30.06 in 7.0 mi East 3.5 mph - N/A   Clear
2:35 AM 57.2 °F 51.8 °F 82% 30.06 in 9.0 mi East 3.5 mph - N/A   Clear
2:55 AM 57.2 °F 51.8 °F 82% 30.06 in 9.0 mi East 4.6 mph - N/A   Scattered Clouds
3:15 AM 57.2 °F 51.8 °F 82% 30.06 in 10.0 mi Calm Calm - N/A   Mostly Cloudy
3:35 AM 55.4 °F 53.6 °F 94% 30.06 in 10.0 mi ENE 3.5 mph - N/A   Mostly Cloudy
3:55 AM 57.2 °F 51.8 °F 82% 30.05 in 9.0 mi ENE 4.6 mph - N/A   Mostly Cloudy
4:15 AM 55.4 °F 51.8 °F 88% 30.05 in 10.0 mi ENE 3.5 mph - N/A   Scattered Clouds
4:35 AM 55.4 °F 51.8 °F 88% 30.05 in 10.0 mi Calm Calm - N/A   Scattered Clouds
4:55 AM 55.4 °F 51.8 °F 88% 30.05 in 10.0 mi Calm Calm - N/A   Mostly Cloudy
5:15 AM 53.6 °F 51.8 °F 94% 30.05 in 10.0 mi Calm Calm - N/A   Scattered Clouds
5:35 AM 53.6 °F 50.0 °F 88% 30.05 in 8.0 mi Calm Calm - N/A   Clear
5:55 AM 51.8 °F 48.2 °F 88% 30.06 in 10.0 mi Calm Calm - N/A   Clear
6:15 AM 50.0 °F 48.2 °F 94% 30.07 in 10.0 mi Calm Calm - N/A   Clear
6:35 AM 51.8 °F 48.2 °F 88% 30.07 in 10.0 mi Calm Calm - N/A   Clear
6:55 AM 51.8 °F 48.2 °F 88% 30.07 in 10.0 mi Calm Calm - N/A   Clear
7:15 AM 51.8 °F 48.2 °F 88% 30.07 in 10.0 mi Calm Calm - N/A   Clear
7:35 AM 50.0 °F 48.2 °F 94% 30.07 in 10.0 mi Calm Calm - N/A   Clear
7:55 AM 51.8 °F 48.2 °F 88% 30.08 in 10.0 mi Calm Calm - N/A   Clear
8:15 AM 53.6 °F 50.0 °F 88% 30.08 in 10.0 mi NE 3.5 mph - N/A   Clear
8:35 AM 53.6 °F 50.0 °F 88% 30.08 in 9.0 mi ENE 5.8 mph - N/A   Clear
8:55 AM 53.6 °F 50.0 °F 88% 30.08 in 10.0 mi ENE 5.8 mph - N/A   Clear
9:15 AM 55.4 °F 51.8 °F 88% 30.08 in 10.0 mi NE 3.5 mph - N/A   Clear
9:35 AM 55.4 °F 51.8 °F 88% 30.08 in 10.0 mi Calm Calm - N/A   Clear
9:55 AM 59.0 °F 51.8 °F 77% 30.09 in 10.0 mi Calm Calm - N/A   Clear
10:15 AM 60.8 °F 53.6 °F 77% 30.09 in 10.0 mi SE 3.5 mph - N/A   Clear
10:35 AM 60.8 °F 51.8 °F 72% 30.08 in 10.0 mi Calm Calm - N/A   Clear
10:55 AM 62.6 °F 53.6 °F 72% 30.08 in 9.0 mi Calm Calm - N/A   Light Drizzle
11:15 AM 62.6 °F 51.8 °F 68% 30.08 in 10.0 mi Calm Calm - N/A   Partly Cloudy
11:35 AM 64.4 °F 51.8 °F 64% 30.08 in 10.0 mi Calm Calm - N/A   Partly Cloudy
11:55 AM 64.4 °F 51.8 °F 64% 30.08 in 10.0 mi SW 4.6 mph - N/A   Partly Cloudy
12:15 PM 64.4 °F 51.8 °F 64% 30.07 in 10.0 mi SW 3.5 mph - N/A   Partly Cloudy
12:35 PM 62.6 °F 51.8 °F 68% 30.06 in 9.0 mi Calm Calm - N/A   Clear
12:55 PM 64.4 °F 51.8 °F 64% 30.05 in 10.0 mi Calm Calm - N/A   Scattered Clouds
1:15 PM 64.4 °F 53.6 °F 68% 30.05 in 10.0 mi Calm Calm - N/A   Mostly Cloudy
1:35 PM 66.2 °F 53.6 °F 64% 30.05 in 10.0 mi Variable 3.5 mph - N/A   Overcast
1:55 PM 66.2 °F 53.6 °F 64% 30.03 in 10.0 mi Calm Calm - N/A   Overcast
2:15 PM 66.2 °F 53.6 °F 64% 30.02 in 10.0 mi Variable 3.5 mph - N/A   Overcast
2:35 PM 66.2 °F 53.6 °F 64% 30.02 in 10.0 mi WNW 5.8 mph - N/A   Overcast
2:55 PM 66.2 °F 53.6 °F 64% 30.02 in 10.0 mi NW 5.8 mph - N/A   Overcast
3:15 PM 66.2 °F 53.6 °F 64% 30.01 in 10.0 mi SW 4.6 mph - N/A   Overcast
3:35 PM 68.0 °F 53.6 °F 60% 30.01 in 10.0 mi Calm Calm - N/A   Mostly Cloudy
3:55 PM 69.8 °F 55.4 °F 60% 30.00 in 10.0 mi SW 5.8 mph - N/A   Partly Cloudy
4:15 PM 68.0 °F 55.4 °F 64% 30.00 in 10.0 mi WNW 4.6 mph - N/A   Clear
4:35 PM 66.2 °F 55.4 °F 68% 30.00 in 10.0 mi NW 4.6 mph - N/A   Clear
4:55 PM 66.2 °F 55.4 °F 68% 30.00 in 10.0 mi WNW 5.8 mph - N/A   Clear
5:15 PM 66.2 °F 55.4 °F 68% 30.00 in 10.0 mi WNW 4.6 mph - N/A   Clear
5:35 PM 66.2 °F 55.4 °F 68% 30.01 in 10.0 mi West 6.9 mph - N/A   Clear
5:55 PM 66.2 °F 55.4 °F 68% 30.01 in 10.0 mi Calm Calm - N/A   Scattered Clouds
6:15 PM 64.4 °F 55.4 °F 73% 30.00 in 10.0 mi Calm Calm - N/A   Partly Cloudy
6:35 PM 64.4 °F 55.4 °F 73% 30.00 in 10.0 mi West 3.5 mph - N/A   Mostly Cloudy
6:55 PM 62.6 °F 57.2 °F 82% 30.01 in 10.0 mi Calm Calm - N/A   Overcast
7:15 PM 62.6 °F 57.2 °F 82% 30.02 in 10.0 mi Calm Calm - N/A   Overcast
7:35 PM 60.8 °F 57.2 °F 88% 30.01 in 10.0 mi North 3.5 mph - N/A   Mostly Cloudy
7:55 PM 60.8 °F 55.4 °F 82% 30.01 in 10.0 mi Calm Calm - N/A   Mostly Cloudy
8:15 PM 60.8 °F 55.4 °F 82% 30.01 in 10.0 mi Calm Calm - N/A   Mostly Cloudy
8:35 PM 57.2 °F 55.4 °F 94% 30.02 in 10.0 mi Calm Calm - N/A   Mostly Cloudy
8:55 PM 57.2 °F 55.4 °F 94% 30.01 in 10.0 mi Calm Calm - N/A   Mostly Cloudy
9:35 PM 57.2 °F 55.4 °F 94% 30.02 in 10.0 mi Calm Calm - N/A   Overcast
9:55 PM 57.2 °F 55.4 °F 94% 30.02 in 10.0 mi Calm Calm - N/A   Overcast
10:15 PM 59.0 °F 55.4 °F 88% 30.03 in 10.0 mi Calm Calm - N/A   Overcast
10:35 PM 57.2 °F 57.2 °F 100% 30.03 in 10.0 mi Calm Calm - N/A   Overcast
10:55 PM 57.2 °F 55.4 °F 94% 30.02 in 10.0 mi Calm Calm - N/A   Overcast
11:15 PM 59.0 °F 55.4 °F 88% 30.02 in 10.0 mi Calm Calm - N/A   Mostly Cloudy
11:35 PM 57.2 °F 55.4 °F 94% 30.02 in 10.0 mi Calm Calm - N/A   Overcast
11:55 PM 57.2 °F 55.4 °F 94% 30.01 in 10.0 mi Calm Calm - N/A   Mostly Cloudy